CAPE
1299 1202 1129 1033 146 171 195 350 328 207 139 63 110 209 3 0 0 0 3 2 3 1 8 73 144 146 179 126 148 99 43 29 21 4 54 4 6 7 9 16 30 8 5
1475 1350 1077 59 197 311 305 201 187 111 116 53 40 6 0 0 0 0 0 0 0 0 2 6 71 88 63 32 72 86 68 44 4 0 0 5 3 5 17 13 19 30 6
1439 834 6 191 233 321 227 198 252 150 78 22 4 0 0 1 0 0 0 0 0 0 0 0 0 19 0 2 11 1 0 0 0 0 0 0 3 2 0 17 21 8 19
1116 142 461 754 483 201 192 120 94 58 0 0 0 0 0 0 0 0 0 0 0 0 0 0 0 0 0 0 0 0 0 0 0 1 1 1 7 9 7 14 15 10 2
426 523 1059 937 745 304 332 246 198 101 54 0 0 0 0 0 0 0 0 0 0 0 0 0 0 0 0 0 0 0 0 0 1 0 0 0 3 13 8 0 5 0 0
997 1230 1144 1136 430 347 243 246 189 130 75 72 8 0 0 0 0 0 0 0 0 0 0 0 0 0 0 0 0 0 0 0 0 0 0 0 4 3 2 0 0 0 3
1379 1455 1131 806 426 472 385 338 268 188 176 151 107 42 1 0 0 0 0 0 0 0 0 0 0 0 0 0 0 5 1 1 0 0 0 0 0 0 0 8 13 3 29
1402 1576 1107 847 619 526 311 269 194 175 151 128 109 81 25 0 0 0 0 0 0 0 0 0 0 0 0 0 0 0 0 0 4 1 2 1 0 0 4 1 2 14 26
1492 1839 1391 1253 805 458 273 238 210 175 123 119 96 71 42 12 0 2 0 0 0 0 0 0 0 0 0 0 0 0 0 0 0 0 0 0 0 0 0 1 5 13 29
2121 1896 1682 1608 1178 829 507 475 366 235 149 115 66 86 59 39 20 6 0 0 0 0 0 0 0 0 0 0 0 0 0 0 0 0 0 0 0 0 0 0 0 0 10
2202 2008 2010 1912 1426 1083 968 693 515 290 201 61 76 103 83 46 41 22 0 0 0 0 0 0 0 0 0 0 0 0 0 0 0 0 0 0 0 0 0 0 0 0 0
1946 2307 2023 1941 1744 1429 1302 1078 624 499 196 97 101 69 56 45 40 31 8 0 0 0 0 0 0 0 0 0 0 0 0 0 0 0 0 0 0 0 0 0 0 0 0
2240 2247 2173 1928 1761 1468 1376 1227 950 620 391 207 154 128 102 152 136 59 20 2 0 0 0 0 0 0 0 0 0 0 0 0 0 0 0 0 0 0 0 0 0 0 0
1941 1778 1626 1706 1570 1443 1330 1069 936 791 564 430 405 278 180 126 147 89 48 26 1 0 0 1 0 1 0 0 0 0 0 0 0 0 0 0 0 0 0 0 0 0 0
900 1033 1206 1089 983 1061 1175 1113 977 846 826 646 480 388 356 314 239 211 136 17 15 0 0 0 3 3 0 0 0 0 0 0 0 0 0 0 0 0 0 0 0 0 0
785 842 822 921 473 373 508 468 545 494 519 523 418 352 320 281 337 154 64 61 9 1 0 4 6 0 0 0 0 0 0 0 0 0 0 0 0 0 0 0 0 0 0
281 362 517 508 351 232 113 15 98 214 240 250 213 180 234 236 309 160 176 82 12 1 1 2 0 0 0 0 0 0 0 0 0 0 0 0 0 0 0 0 0 0 0
7 24 166 403 157 52 8 0 1 7 42 391 183 146 264 312 174 170 55 38 61 0 0 1 0 0 0 0 0 0 0 0 0 0 0 0 0 0 0 0 0 0 0
12 1 16 139 10 8 6 2 0 19 109 83 146 195 138 232 103 77 106 50 3 0 0 1 0 0 0 2 2 0 0 0 0 0 0 0 0 0 0 0 1 4 4
0 0 1 6 8 7 4 5 0 2 3 5 46 97 120 119 144 148 67 5 0 0 0 0 0 0 2 2 1 0 0 0 0 0 0 0 3 5 3 0 0 0 2
0 0 1 9 4 12 6 9 4 0 5 11 18 27 51 53 40 61 13 8 0 0 0 0 0 0 0 4 0 0 0 0 0 0 1 15 22 22 12 6 1 0 0
2 0 0 0 4 4 6 3 4 5 7 6 6 1 0 0 0 1 0 0 0 0 0 0 0 6 4 1 0 0 0 0 0 4 17 15 35 30 9 7 5 6 3
98 0 0 0 7 22 17 23 39 46 58 67 67 41 18 4 0 0 0 0 0 0 0 0 0 0 1 2 1 0 0 1 7 2 6 12 23 29 20 15 7 0 0
125 0 0 0 44 59 42 49 79 92 88 84 84 97 17 11 0 0 0 0 0 0 0 0 0 0 0 0 5 9 0 2 3 9 21 11 3 0 0 0 0 0 0
129 69 46 20 36 13 1 0 7 4 4 5 1 2 5 4 4 1 0 0 0 0 0 0 0 0 0 0 1 0 4 1 4 0 0 2 5 0 0 0 0 0 0
157 173 150 96 99 81 14 9 11 16 27 11 2 2 7 8 2 0 0 13 0 0 1 0 0 1 0 0 0 1 9 21 7 21 32 29 4 1 3 0 0 0 0
CIN
-65 -29 -13 -3 -166 -33 -18 -9 -15 -27 -53 -89 -59 -25 -6 0 0 0 -13 0 0 -2 -98 -38 -27 -47 -13 -37 -23 -16 -27 -41 -78 -46 -104 -16 -33 -19 0 0 -1 -17 -1
-50 -16 -18 -242 -66 -15 -9 -29 -26 -48 -43 -62 -72 -33 0 0 0 0 0 0 0 0 0 -91 -41 -39 -32 -64 -37 -26 -29 -53 -45 0 -4 -30 -16 -14 0 -3 -8 -3 -14
-67 -68 -51 -155 -76 -50 -37 -43 -28 -31 -54 -89 -66 0 0 -1 0 0 0 0 0 0 0 0 0 -60 0 -89 -61 -15 0 0 0 0 0 0 -4 0 0 0 0 -9 -1
-110 -270 -122 -56 -65 -90 -66 -63 -69 -57 0 0 0 0 0 0 0 0 0 0 0 0 0 0 0 -1 0 0 0 0 0 -1 0 0 0 0 -1 0 -2 0 0 0 -1
-276 -158 -36 -22 -29 -54 -26 -42 -44 -33 -53 -1 0 0 0 0 0 0 0 0 0 0 0 0 0 0 0 0 0 0 0 -1 0 -2 0 -1 -10 -10 -3 -2 -2 0 0
-124 -49 -39 -26 -79 -71 -74 -48 -31 -39 -52 -36 -55 0 0 0 0 0 0 0 0 0 0 0 0 0 0 0 0 0 0 0 0 0 0 0 -20 -7 0 0 -1 -1 -18
-97 -44 -57 -68 -74 -32 -24 -37 -28 -22 -27 -13 -41 -39 -12 0 0 0 0 0 0 0 0 0 0 0 0 0 0 -6 -1 0 0 0 0 0 0 0 0 -10 -5 -1 -4
-92 -40 -55 -73 -72 -46 -66 -59 -45 -61 -21 -7 -35 -38 -59 0 0 0 0 0 0 0 0 0 0 0 0 0 0 0 0 0 -1 -2 -3 -2 0 0 -6 -7 -4 -4 -10
-96 -24 -28 -63 -52 -45 -129 -106 -76 -57 -27 -30 -32 -39 -27 -23 0 -5 0 0 0 0 0 0 0 0 0 0 0 0 0 0 0 0 0 0 0 0 0 -2 -5 -5 -6
-11 -26 -22 -40 -33 -33 -107 -77 -67 -55 -42 -40 -48 -41 -38 -19 -18 -30 0 0 0 0 0 0 0 0 0 0 0 0 0 0 0 0 0 0 0 0 0 0 0 0 -13
-16 -28 -33 -28 -35 -40 -53 -48 -51 -47 -52 -48 -95 -67 -44 -37 -25 -23 0 0 0 0 0 0 0 0 0 0 0 0 0 0 0 0 0 0 0 0 0 0 0 0 0
-26 -21 -16 -25 -13 -31 -18 -16 -31 -26 -55 -6 -65 -16 -28 -22 -15 -11 -30 0 0 0 0 0 0 0 0 0 0 0 0 0 0 0 0 0 0 0 0 0 0 0 0
-29 -21 -13 -7 -6 -8 -5 -2 -5 -12 -7 -31 -1 -1 -1 -2 -1 -3 -28 -7 0 0 0 0 0 0 0 0 0 0 0 0 0 0 0 0 0 0 0 0 0 0 0
-20 -26 -51 -22 -8 -2 -1 -1 0 0 -9 0 0 0 -16 -12 0 0 -4 -2 -8 0 0 0 0 -1 0 0 0 0 0 0 0 0 0 0 0 0 0 0 0 0 0
-140 -97 -61 -64 -50 -28 -15 -5 -2 -2 0 0 -1 -6 -5 -2 0 0 0 -1 0 0 0 0 -3 0 0 0 0 0 0 0 0 0 0 0 0 0 0 0 0 0 0
-137 -99 -75 -59 -124 -111 -72 -63 -41 -30 -19 -12 -10 -8 -9 -9 0 0 -9 0 -2 -1 0 -10 -7 -1 0 0 0 0 0 0 0 0 0 0 0 0 0 0 0 0 0
-229 -187 -127 -116 -151 -145 -160 -191 -119 -89 -68 -56 -44 -33 -21 -9 0 0 0 0 -3 -9 0 -12 0 0 0 0 0 0 0 0 0 0 0 0 0 0 0 0 0 0 0
-364 -309 -200 -114 -182 -106 -44 0 -188 -213 -115 -33 -37 -29 -9 -1 -1 -5 -11 -9 0 0 0 -7 0 0 0 0 0 0 0 0 0 0 0 0 0 0 0 0 0 0 0
-258 -95 -168 -126 -5 -4 -25 -6 0 -69 -82 -63 -28 -20 -18 -3 -10 -8 -1 0 0 0 0 -2 0 0 0 0 0 0 0 0 0 0 0 0 0 -6 0 0 -1 -8 -3
0 -1 0 -28 -4 -1 0 0 0 -2 0 -2 -49 -21 -9 -3 -8 0 -3 -3 0 0 0 0 0 0 -3 0 0 0 0 0 0 0 0 0 -14 -4 -1 0 0 0 -4
0 0 -7 -8 0 -3 0 0 0 0 -4 -6 -25 -25 -8 -10 -10 -7 -4 -7 0 0 0 0 0 0 0 -1 0 0 0 0 0 0 -1 -2 -25 -4 0 -7 -1 0 0
-15 0 0 0 -23 -12 -12 -9 -3 -6 -8 -15 -19 -9 -1 0 0 -1 0 0 0 0 0 0 0 -9 -4 -54 0 0 0 0 0 -11 -4 -5 -4 -5 -1 -1 -3 -2 -1
-15 0 0 0 -12 -16 -4 -8 0 -8 -5 -10 -15 -21 -13 -18 0 0 0 0 0 0 0 0 0 -6 -7 -45 -36 0 0 -7 -15 -3 -4 -28 -15 -10 -4 -5 -6 -2 0
-24 0 0 0 -8 -11 -22 -36 -29 -24 -35 -21 -13 -20 -28 -75 0 0 0 0 0 0 0 0 0 0 0 0 -79 -12 0 -18 -7 0 -2 -1 -5 -1 0 0 0 0 0
-15 -37 -22 -19 -2 -5 -2 -1 -32 -12 -5 -14 -16 -16 -55 -2 -2 -3 -1 0 0 0 0 0 0 -1 0 0 -9 0 -2 -8 -15 0 -1 -1 -1 -1 0 0 0 0 0
-38 -26 -18 -9 -5 -10 -16 -3 0 -1 -2 -32 0 -1 -2 0 -1 0 0 -25 -1 -1 0 0 0 0 0 0 0 0 -3 -1 -2 -3 -1 0 -3 0 -1 0 0 0 0
Wind_Speed
36 32 31 34 32 10 4 8 15 16 14 nan 14 16 nan nan nan nan nan nan nan nan nan nan 3 5 6 6 6 nan nan nan nan nan nan nan nan nan nan nan nan nan nan
32 27 27 nan 20 21 12 2 5 10 11 nan nan nan nan nan nan nan nan nan nan nan nan nan nan nan nan nan nan nan nan nan nan nan nan nan nan nan nan nan nan nan nan
31 28 nan 23 16 12 11 8 10 11 nan nan nan nan nan nan nan nan nan nan nan nan nan nan nan nan nan nan nan nan nan nan nan nan nan nan nan nan nan nan nan nan nan
33 30 26 23 22 18 14 10 nan nan nan nan nan nan nan nan nan nan nan nan nan nan nan nan nan nan nan nan nan nan nan nan nan nan nan nan nan nan nan nan nan nan nan
34 29 26 22 25 24 21 17 16 16 nan nan nan nan nan nan nan nan nan nan nan nan nan nan nan nan nan nan nan nan nan nan nan nan nan nan nan nan nan nan nan nan nan
33 26 25 24 30 29 21 22 20 19 nan nan nan nan nan nan nan nan nan nan nan nan nan nan nan nan nan nan nan nan nan nan nan nan nan nan nan nan nan nan nan nan nan
32 25 23 26 28 24 13 14 19 16 17 16 22 nan nan nan nan nan nan nan nan nan nan nan nan nan nan nan nan nan nan nan nan nan nan nan nan nan nan nan nan nan nan
29 27 26 25 27 29 15 7 9 10 8 10 19 nan nan nan nan nan nan nan nan nan nan nan nan nan nan nan nan nan nan nan nan nan nan nan nan nan nan nan nan nan nan
29 28 27 27 30 29 31 18 14 11 3 7 nan nan nan nan nan nan nan nan nan nan nan nan nan nan nan nan nan nan nan nan nan nan nan nan nan nan nan nan nan nan nan
29 29 28 32 31 30 27 26 29 21 18 5 nan nan nan nan nan nan nan nan nan nan nan nan nan nan nan nan nan nan nan nan nan nan nan nan nan nan nan nan nan nan nan
29 30 28 26 29 28 29 27 23 21 22 nan nan 9 nan nan nan nan nan nan nan nan nan nan nan nan nan nan nan nan nan nan nan nan nan nan nan nan nan nan nan nan nan
27 29 28 30 27 24 26 27 27 23 17 nan 21 nan nan nan nan nan nan nan nan nan nan nan nan nan nan nan nan nan nan nan nan nan nan nan nan nan nan nan nan nan nan
29 30 30 28 30 27 26 26 25 23 20 20 21 19 18 20 24 nan nan nan nan nan nan nan nan nan nan nan nan nan nan nan nan nan nan nan nan nan nan nan nan nan nan
31 30 28 30 29 30 28 28 26 27 25 22 21 21 25 25 23 nan nan nan nan nan nan nan nan nan nan nan nan nan nan nan nan nan nan nan nan nan nan nan nan nan nan
31 28 27 28 30 32 29 27 29 29 29 27 24 25 27 25 25 28 28 nan nan nan nan nan nan nan nan nan nan nan nan nan nan nan nan nan nan nan nan nan nan nan nan
31 26 27 28 29 29 27 25 25 22 22 24 28 30 29 34 37 30 nan nan nan nan nan nan nan nan nan nan nan nan nan nan nan nan nan nan nan nan nan nan nan nan nan
30 28 31 30 28 30 26 nan nan 23 24 25 25 33 36 38 39 33 28 nan nan nan nan nan nan nan nan nan nan nan nan nan nan nan nan nan nan nan nan nan nan nan nan
nan nan 28 27 30 nan nan nan nan nan nan 21 23 23 27 32 33 32 nan nan nan nan nan nan nan nan nan nan nan nan nan nan nan nan nan nan nan nan nan nan nan nan nan
nan nan nan 27 nan nan nan nan nan nan 25 nan 30 30 31 32 33 nan 30 nan nan nan nan nan nan nan nan nan nan nan nan nan nan nan nan nan nan nan nan nan nan nan nan
nan nan nan nan nan nan nan nan nan nan nan nan nan nan 36 37 33 32 nan nan nan nan nan nan nan nan nan nan nan nan nan nan nan nan nan nan nan nan nan nan nan nan nan
nan nan nan nan nan nan nan nan nan nan nan nan nan nan nan nan nan nan nan nan nan nan nan nan nan nan nan nan nan nan nan nan nan nan nan nan nan nan nan nan nan nan nan
nan nan nan nan nan nan nan nan nan nan nan nan nan nan nan nan nan nan nan nan nan nan nan nan nan nan nan nan nan nan nan nan nan nan nan nan nan nan nan nan nan nan nan
nan nan nan nan nan nan nan nan nan nan nan nan nan nan nan nan nan nan nan nan nan nan nan nan nan nan nan nan nan nan nan nan nan nan nan nan nan nan nan nan nan nan nan
41 nan nan nan nan nan nan nan nan nan nan nan nan nan nan nan nan nan nan nan nan nan nan nan nan nan nan nan nan nan nan nan nan nan nan nan nan nan nan nan nan nan nan
40 nan nan nan nan nan nan nan nan nan nan nan nan nan nan nan nan nan nan nan nan nan nan nan nan nan nan nan nan nan nan nan nan nan nan nan nan nan nan nan nan nan nan
37 36 38 nan nan nan nan nan nan nan nan nan nan nan nan nan nan nan nan nan nan nan nan nan nan nan nan nan nan nan nan nan nan nan nan nan nan nan nan nan nan nan nan
Wind_Direction
336 326 326 338 343 32 90 233 212 202 221 nan 246 244 nan nan nan nan nan nan nan nan nan nan 235 303 321 314 308 nan nan nan nan nan nan nan nan nan nan nan nan nan nan
340 340 340 nan 353 7 338 275 226 224 232 nan nan nan nan nan nan nan nan nan nan nan nan nan nan nan nan nan nan nan nan nan nan nan nan nan nan nan nan nan nan nan nan
345 339 nan 344 339 333 327 319 244 252 nan nan nan nan nan nan nan nan nan nan nan nan nan nan nan nan nan nan nan nan nan nan nan nan nan nan nan nan nan nan nan nan nan
337 338 341 349 339 305 296 294 nan nan nan nan nan nan nan nan nan nan nan nan nan nan nan nan nan nan nan nan nan nan nan nan nan nan nan nan nan nan nan nan nan nan nan
338 334 336 336 331 316 302 304 294 293 nan nan nan nan nan nan nan nan nan nan nan nan nan nan nan nan nan nan nan nan nan nan nan nan nan nan nan nan nan nan nan nan nan
338 332 335 330 333 323 302 293 291 287 nan nan nan nan nan nan nan nan nan nan nan nan nan nan nan nan nan nan nan nan nan nan nan nan nan nan nan nan nan nan nan nan nan
339 334 333 330 329 323 331 303 271 265 274 267 262 nan nan nan nan nan nan nan nan nan nan nan nan nan nan nan nan nan nan nan nan nan nan nan nan nan nan nan nan nan nan
334 338 332 331 326 327 318 336 328 287 269 282 270 nan nan nan nan nan nan nan nan nan nan nan nan nan nan nan nan nan nan nan nan nan nan nan nan nan nan nan nan nan nan
326 324 326 326 331 330 339 329 339 359 266 271 nan nan nan nan nan nan nan nan nan nan nan nan nan nan nan nan nan nan nan nan nan nan nan nan nan nan nan nan nan nan nan
316 320 319 318 329 333 336 338 335 351 355 343 nan nan nan nan nan nan nan nan nan nan nan nan nan nan nan nan nan nan nan nan nan nan nan nan nan nan nan nan nan nan nan
311 313 314 321 326 329 327 322 324 324 330 nan nan 324 nan nan nan nan nan nan nan nan nan nan nan nan nan nan nan nan nan nan nan nan nan nan nan nan nan nan nan nan nan
304 308 309 312 314 317 319 310 319 318 317 nan 316 nan nan nan nan nan nan nan nan nan nan nan nan nan nan nan nan nan nan nan nan nan nan nan nan nan nan nan nan nan nan
284 294 301 303 308 308 307 309 306 308 300 310 310 305 299 303 298 nan nan nan nan nan nan nan nan nan nan nan nan nan nan nan nan nan nan nan nan nan nan nan nan nan nan
280 286 291 290 293 290 285 286 297 300 298 291 291 296 293 294 296 nan nan nan nan nan nan nan nan nan nan nan nan nan nan nan nan nan nan nan nan nan nan nan nan nan nan
284 287 292 292 297 295 288 284 286 281 276 286 290 291 292 293 293 293 295 nan nan nan nan nan nan nan nan nan nan nan nan nan nan nan nan nan nan nan nan nan nan nan nan
280 284 289 293 297 297 305 307 297 291 272 272 279 284 275 284 293 299 nan nan nan nan nan nan nan nan nan nan nan nan nan nan nan nan nan nan nan nan nan nan nan nan nan
278 275 284 288 294 296 301 nan nan 307 290 271 282 291 293 292 294 295 299 nan nan nan nan nan nan nan nan nan nan nan nan nan nan nan nan nan nan nan nan nan nan nan nan
nan nan 282 289 293 nan nan nan nan nan nan 294 277 286 294 299 298 295 nan nan nan nan nan nan nan nan nan nan nan nan nan nan nan nan nan nan nan nan nan nan nan nan nan
nan nan nan 287 nan nan nan nan nan nan 297 nan 286 287 288 289 292 nan 302 nan nan nan nan nan nan nan nan nan nan nan nan nan nan nan nan nan nan nan nan nan nan nan nan
nan nan nan nan nan nan nan nan nan nan nan nan nan nan 290 287 291 293 nan nan nan nan nan nan nan nan nan nan nan nan nan nan nan nan nan nan nan nan nan nan nan nan nan
nan nan nan nan nan nan nan nan nan nan nan nan nan nan nan nan nan nan nan nan nan nan nan nan nan nan nan nan nan nan nan nan nan nan nan nan nan nan nan nan nan nan nan
nan nan nan nan nan nan nan nan nan nan nan nan nan nan nan nan nan nan nan nan nan nan nan nan nan nan nan nan nan nan nan nan nan nan nan nan nan nan nan nan nan nan nan
nan nan nan nan nan nan nan nan nan nan nan nan nan nan nan nan nan nan nan nan nan nan nan nan nan nan nan nan nan nan nan nan nan nan nan nan nan nan nan nan nan nan nan
287 nan nan nan nan nan nan nan nan nan nan nan nan nan nan nan nan nan nan nan nan nan nan nan nan nan nan nan nan nan nan nan nan nan nan nan nan nan nan nan nan nan nan
289 nan nan nan nan nan nan nan nan nan nan nan nan nan nan nan nan nan nan nan nan nan nan nan nan nan nan nan nan nan nan nan nan nan nan nan nan nan nan nan nan nan nan
291 289 289 nan nan nan nan nan nan nan nan nan nan nan nan nan nan nan nan nan nan nan nan nan nan nan nan nan nan nan nan nan nan nan nan nan nan nan nan nan nan nan nan